"Pseudo-MPEC" for CEQVMD2

Created 2026 Sep 5 6:35:06 UT using Find_Orb

Click here for an explanation of pseudo-MPECs

 
 Astrometry: 
     CEQVMD2*1C2026 09 02.23600322 09 21.136-21 38 43.76   ~926K 20.38GVNEOCPG96
     CEQVMD2 1C2026 09 02.24324122 09 21.827-21 36 21.64   ~926K 20.45GVNEOCPG96
     CEQVMD2 1C2026 09 02.24847622 09 22.331-21 34 37.13   ~926K 20.06GVNEOCPG96
     CEQVMD2 1C2026 09 02.25370922 09 22.817-21 32 53.63   ~926K 19.76GVNEOCPG96
     CEQVMD2 1C2026 09 02.28053922 09 25.384-21 24 00.72   ~9275 19.76GVNEOCPG96
     CEQVMD2 1C2026 09 02.28078522 09 25.376-21 23 56.00   ~9275 19.98GVNEOCPG96
     CEQVMD2 1C2026 09 02.28103022 09 25.412-21 23 50.39   ~9275 20.03GVNEOCPG96
     CEQVMD2 1C2026 09 02.28127522 09 25.420-21 23 46.39   ~9275 20.12GVNEOCPG96

Station data:
(G96) Mt. Lemmon Survey  (N32.442729 W110.788720)
   US/Arizona.  Observer E. J. Christensen. Measurers T. Beuden, V. F.
   Carvajal, D. Fay, J. B. Fazekas, D. C. Fuls, A. R. Gibbs, A. D. Grauer, H.
   Gröller, J. K. Hogan, R. A. Kowalski, S. M. Larson, G. J. Leonard, D.
   Rankin, R. L. Seaman, F. C. Shelly, K. W. Wierzchoś. 1.5-m reflector + 10K
   CCD.

Orbital elements:  CEQVMD2
   Perihelion 2026 Aug 4.110205 +/- 31.9 TT =  2:38:41.7 (JD 2461256.610205)
Epoch 2026 Sep  2.0 TT = JDT 2461285.5   Earth MOID: 0.0433      AutoNEOCP
M  14.708219147 +/- 20              (J2000 ecliptic)
n   0.509114696 +/- 0.282           Peri.  326.168207 +/- 37
a   1.553312938 +/- 0.575           Node   340.960217 +/- 0.59
e   0.34570533 +/- 0.225            Incl.   11.822875 +/- 5.2
P   1.936/707.096d         H 25.91  G  0.15   U 11.9  SR
q 1.016324368 +/- 0.0641    Q 2.090301508 +/- 3.43
From 8 observations 2026 Sept. 2 (65.2 min); mean residual 0".33
Residuals in arcseconds: 
260902 G96  .13+  .76+    260902 G96  .19-  .33-    260902 G96  .06+  .61+    
260902 G96  .01-  .67-    260902 G96  .31+  .03+    260902 G96  .15-  .26-    
260902 G96  .00   .01-    260902 G96  .13-  .14-    

Ephemerides (geocentric):
Date (UTC) HH   RA             Dec           delta  r     elong  mag " sig PA
---- --------  ------------   ------------  ------ ------ -----  --- --------
2026 09 05 07  22 16 01.979   -06 53 48.35  .05772 1.0652 170.3 20.5 279' 173
2026 09 05 08  22 16 06.470   -06 43 36.89  .05785 1.0654 170.3 20.5 287' 173
2026 09 05 09  22 16 10.939   -06 33 28.30  .05799 1.0655 170.3 20.5 295' 173
2026 09 05 10  22 16 15.387   -06 23 22.59  .05813 1.0656 170.3 20.5 303' 173
2026 09 05 11  22 16 19.813   -06 13 19.75  .05827 1.0657 170.2 20.5 312' 173
2026 09 05 12  22 16 24.217   -06 03 19.77  .05840 1.0658 170.2 20.5 320' 173
2026 09 05 13  22 16 28.601   -05 53 22.63  .05854 1.0660 170.2 20.5 329' 173
2026 09 05 14  22 16 32.964   -05 43 28.34  .05868 1.0661 170.1 20.5 338' 173
2026 09 05 15  22 16 37.306   -05 33 36.88  .05882 1.0662 170.1 20.5 347' 173
2026 09 05 16  22 16 41.627   -05 23 48.24  .05896 1.0663 170.0 20.5 356' 173
2026 09 05 17  22 16 45.928   -05 14 02.42  .05910 1.0664 170.0 20.5 365' 173
2026 09 05 18  22 16 50.209   -05 04 19.40  .05925 1.0666 170.0 20.5 374' 173
2026 09 05 19  22 16 54.470   -04 54 39.19  .05939 1.0667 169.9 20.6 383' 173
2026 09 05 20  22 16 58.711   -04 45 01.76  .05953 1.0668 169.9 20.6 393' 173
2026 09 05 21  22 17 02.932   -04 35 27.11  .05967 1.0669 169.8 20.6 402' 173
2026 09 05 22  22 17 07.134   -04 25 55.24  .05982 1.0671 169.8 20.6 412' 173
2026 09 05 23  22 17 11.317   -04 16 26.12  .05996 1.0672 169.7 20.6 422' 173
2026 09 06 00  22 17 15.480   -04 06 59.76  .06011 1.0673 169.7 20.6 431' 173
2026 09 06 01  22 17 19.624   -03 57 36.14  .06025 1.0674 169.6 20.6 441' 173
2026 09 06 02  22 17 23.749   -03 48 15.26  .06040 1.0676 169.5 20.6 451' 173
2026 09 06 03  22 17 27.855   -03 38 57.09  .06054 1.0677 169.5 20.6 461' 173
2026 09 06 04  22 17 31.943   -03 29 41.64  .06069 1.0678 169.4 20.6 472' 173
2026 09 06 05  22 17 36.013   -03 20 28.90  .06084 1.0679 169.4 20.6 482' 173
2026 09 06 06  22 17 40.064   -03 11 18.85  .06099 1.0680 169.3 20.6 492' 173
2026 09 06 07  22 17 44.097   -03 02 11.48  .06113 1.0682 169.2 20.6 503' 172
2026 09 06 08  22 17 48.112   -02 53 06.79  .06128 1.0683 169.2 20.7 513' 172
2026 09 06 09  22 17 52.109   -02 44 04.76  .06143 1.0684 169.1 20.7 524' 172
2026 09 06 10  22 17 56.088   -02 35 05.39  .06158 1.0685 169.0 20.7 535' 172
2026 09 06 11  22 18 00.050   -02 26 08.66  .06173 1.0687 169.0 20.7 545' 172
2026 09 06 12  22 18 03.994   -02 17 14.56  .06188 1.0688 168.9 20.7 556' 172
2026 09 06 13  22 18 07.921   -02 08 23.09  .06203 1.0689 168.8 20.7 567' 172
2026 09 06 14  22 18 11.831   -01 59 34.22  .06219 1.0690 168.7 20.7 578' 172
2026 09 06 15  22 18 15.724   -01 50 47.96  .06234 1.0692 168.7 20.7 589' 172
2026 09 06 16  22 18 19.600   -01 42 04.30  .06249 1.0693 168.6 20.7 600' 172
2026 09 06 17  22 18 23.460   -01 33 23.21  .06264 1.0694 168.5 20.7 611' 172
2026 09 06 18  22 18 27.303   -01 24 44.70  .06280 1.0695 168.5 20.7 622' 172
2026 09 06 19  22 18 31.129   -01 16 08.74  .06295 1.0697 168.4 20.7 633' 172
2026 09 06 20  22 18 34.939   -01 07 35.34  .06311 1.0698 168.3 20.7 644' 172
2026 09 06 21  22 18 38.733   -00 59 04.47  .06326 1.0699 168.2 20.8 655' 172
2026 09 06 22  22 18 42.511   -00 50 36.13  .06342 1.0700 168.1 20.8 666' 172
2026 09 06 23  22 18 46.273   -00 42 10.31  .06357 1.0702 168.1 20.8 677' 172
2026 09 07 00  22 18 50.019   -00 33 47.00  .06373 1.0703 168.0 20.8 689' 172
2026 09 07 01  22 18 53.749   -00 25 26.18  .06388 1.0704 167.9 20.8 700' 172
2026 09 07 02  22 18 57.464   -00 17 07.84  .06404 1.0705 167.8 20.8 711' 171
2026 09 07 03  22 19 01.164   -00 08 51.99  .06420 1.0707 167.8 20.8 722' 171
2026 09 07 04  22 19 04.848   -00 00 38.59  .06436 1.0708 167.7 20.8 733' 171
2026 09 07 05  22 19 08.517   +00 07 32.35  .06452 1.0709 167.6 20.8 744' 171
2026 09 07 06  22 19 12.171   +00 15 40.85  .06467 1.0711 167.5 20.8 756' 171